Location: Paris
(48.6709°N, 2.3750°E)
Time: 18:46:53
(UTC+02:00)

STARS - Pass Details

Date: 30 June 2022
Orbit: 620 x 637 km, 98.2° (Epoch: 06 August)

Event Time Altitude Azimuth Distance (km) Brightness Sun altitude
Rises 23:55:34 0° 22° (NNE) 2,936 ? -13.4°
Reaches altitude 10° 23:57:59 10° 32° (NNE) 2,020 ? -13.6°
Maximum altitude 00:01:56 32° 96° (E) 1,094 ? -13.9°
Enters shadow 00:03:52 22° 140° (SE) 1,375 ? -14.0°
